GSAT0104 (GALILEO-FM4)

Last updated on Jan. 15, 2021, 6:30 a.m. UTC

1 38858U 12055B   21014.09868832  .00000011  00000-0  00000-0 0  9999
2 38858  55.0167 155.9834 0000665 211.1338 148.7985  1.70473563 51407
UTC
Height (km)
Latitude
Longitude
Inclination
Orbital Period
UTC large
Height (km)
Speed (km/s)
/
Latitude / Longitude
Inclination (degrees)
Orbital Period (minutes)
Azimuth
Elevation
Range (km)
Doppler Factor
iOS Compass Heading
iOS Angle

Next 30 passes for location: Hong Kong

Rise time Rise Azimuth (degrees) Set time Set Azimuth (degrees) Duration Max altitude (degrees)

No matching passes for this satellites